GFSSW_850_dewp_021.txt.gz
Dewpoint
-12 -10 -9 -8 -7 -6 -6 -6 -6 -5 -5 -5 -5 -5 -5 -4 -6 -6 -9 -12 -15 -13 -3 -4 2 7 12 12 10 9 7 11 12 12 10 13 13 15 15 15 14 15 15 15 16
-18 -18 -16 -14 -11 -10 -9 -7 -6 -6 -6 -5 -5 -5 -6 -5 -5 -9 -11 -15 -14 -14 -12 -7 -3 4 10 5 9 9 7 8 8 10 10 13 13 14 14 13 14 16 16 14 15
-18 -18 -18 -18 -18 -15 -12 -11 -9 -7 -7 -6 -6 -5 -5 -6 -6 -10 -6 -8 -13 -14 -10 -6 -13 -4 -1 4 8 8 7 6 7 9 10 12 13 13 13 13 14 16 16 16 16
-16 -17 -17 -18 -18 -18 -18 -16 -13 -10 -8 -7 -7 -6 -6 -6 -5 -11 -9 -8 -10 -12 -8 -8 -8 -6 -3 2 3 6 8 6 7 9 11 12 13 12 12 12 13 15 16 16 16
-17 -17 -17 -17 -17 -17 -18 -18 -18 -15 -11 -8 -8 -7 -7 -7 -7 -9 -9 -14 -13 -11 -10 -7 -8 -7 -3 -1 -2 2 5 7 8 9 10 11 12 11 11 14 15 15 16 16 16
-18 -18 -18 -18 -17 -17 -17 -17 -18 -18 -14 -10 -8 -8 -8 -5 -9 -6 -6 -9 -11 -11 -10 -6 -8 -7 -4 -3 -1 3 6 9 9 10 11 10 12 11 12 15 15 16 15 15 16
-18 -19 -19 -19 -19 -18 -17 -17 -17 -18 -16 -12 -9 -9 -7 -7 -9 -8 -4 -4 -7 -10 -11 -7 -10 -4 -3 -4 1 7 9 10 9 10 10 10 13 12 12 14 15 15 15 15 16
-18 -19 -19 -19 -19 -19 -18 -17 -17 -18 -17 -12 -8 -5 -4 -9 -7 -1 -1 -7 -5 -8 -9 -7 -7 -9 -6 0 7 8 8 9 10 9 10 9 11 11 14 14 14 14 15 15 16
-19 -19 -19 -20 -20 -20 -20 -18 -17 -18 -15 -7 -1 -0 -1 -3 -1 -1 -4 -6 -4 -6 -7 -7 -6 -9 -7 4 8 8 8 9 11 9 10 11 11 10 13 14 14 14 14 15 16
-20 -20 -20 -21 -21 -21 -21 -18 -17 -14 0 3 3 4 -2 -1 -1 -2 -1 -5 -5 -6 -6 -8 -7 -9 -4 2 4 8 9 9 11 10 10 11 11 12 14 14 14 15 14 15 16
-22 -22 -21 -22 -22 -22 -21 -17 -11 -6 -6 -1 0 1 -1 -2 -3 -1 -1 -5 -5 -5 -6 -7 -9 -8 -5 2 2 5 7 8 10 10 10 11 11 12 14 14 14 15 15 15 15
-20 -21 -23 -23 -23 -22 -20 -18 -8 -11 -8 -11 -10 -8 -7 -7 -4 -2 -2 -3 -7 -6 -8 -6 -8 -9 -8 -2 4 7 7 8 9 10 9 10 11 11 12 14 14 14 15 15 15
-21 -21 -23 -24 -24 -18 -20 -11 -13 -17 -9 -9 -9 -8 -8 -7 -6 -7 -2 -3 -5 -6 -9 -7 -10 -9 -6 -4 -2 6 7 9 8 9 10 10 11 11 12 12 13 13 13 13 14
-19 -21 -21 -25 -20 -23 -13 -13 -20 -18 -3 -3 -4 -4 -4 -4 -4 -7 -4 -3 -6 -3 -9 -10 -11 -10 -6 -5 -3 1 5 7 8 10 11 10 11 11 11 13 12 12 12 12 12
-19 -20 -20 -22 -23 -22 -22 -20 -22 -5 -1 -5 -4 -3 -3 -3 -4 -3 -4 -2 -2 -4 -7 -4 -10 -7 -9 -6 -3 -1 2 5 8 9 10 12 12 9 12 13 12 11 11 11 11
-19 -20 -20 -22 -24 -22 -20 -25 -6 -1 1 -3 -2 -3 -2 -3 -4 -1 -2 -3 -4 -4 -8 -5 -10 -10 -8 -7 -3 -2 1 4 7 7 11 9 11 7 11 12 11 10 11 11 11
-18 -20 -21 -22 -22 -23 -22 -24 -5 -1 -4 -3 -3 -5 -6 -2 -2 -3 -2 -1 -0 1 -1 -4 -6 -9 -10 -6 -2 -2 1 5 7 11 7 5 12 9 6 8 8 8 10 10 11
-18 -20 -22 -24 -21 -19 -16 -13 -3 -5 -4 -5 -5 -5 -5 -5 -3 -4 -1 -2 -2 -2 -1 -0 -2 -6 -9 -8 -3 -1 -2 2 7 7 5 6 11 8 7 5 7 8 9 10 10
-17 -19 -21 -16 -6 -6 -12 -17 -12 -6 -4 -6 -6 -5 -5 -4 -4 -3 -2 -4 -3 -2 -1 -0 -1 -10 -9 -8 -4 -1 0 -3 0 1 4 4 7 4 5 5 5 6 7 9 10
-15 -19 -13 -6 -1 -4 -13 -16 -16 -7 -4 -4 -3 -4 -3 -4 -4 -4 -3 -4 -3 -4 -4 -4 -2 -9 -11 -9 -7 -4 -5 -2 -1 5 4 2 3 -0 4 4 5 5 6 7 9
-14 -13 -9 -2 -3 -6 -13 -17 -18 -14 -7 -7 -5 -4 -4 -4 -5 -5 -6 -5 -7 -5 -4 -4 -6 -6 -8 -8 -8 -5 -3 -2 -2 0 4 3 1 2 3 3 2 2 3 4 8
-10 -10 -4 -4 -1 -6 -8 -9 -12 -12 -17 -10 -9 -7 -4 -6 -5 -5 -5 -5 -6 -8 -4 -4 -3 -2 -7 -9 -9 -11 -6 -4 -0 4 0 0 -0 -2 1 0 2 1 0 5 7
-0 -1 -6 -1 -0 -1 -1 -1 -2 -10 -10 -12 -13 -10 -10 -8 -5 -6 -8 -9 -8 -7 -3 -5 -3 -0 -1 -4 -7 -6 -7 -7 -6 -5 5 0 -1 2 1 3 2 2 3 4 7
1 1 1 0 -0 -1 1 -1 -1 -1 -1 -11 -9 -9 -8 -8 -6 -6 -5 -6 -6 -8 -6 -5 -1 -1 -1 -1 -5 -4 -6 -6 -6 -2 -3 -0 -2 -2 -1 4 4 5 3 3 6
1 2 4 4 2 3 1 -1 -2 -2 -1 -2 -1 -7 -5 -4 -4 -4 -3 -4 -5 -5 1 3 6 3 1 -3 -4 -6 -7 -7 -4 -4 -2 -4 1 -1 0 2 4 1 5 7 8
1 2 2 2 2 2 0 -2 -0 1 1 -0 1 -0 0 1 1 -2 -1 -1 -1 1 -0 1 3 2 3 0 -3 -4 -6 -7 -6 -7 -4 -6 1 -0 -0 2 3 4 5 8 8
-0 -1 1 -2 -0 1 -1 -2 -1 -1 -1 -0 -0 0 1 2 3 3 2 -0 0 3 7 6 2 2 1 -1 -3 -2 -4 -5 -5 -5 -3 -1 -1 1 2 3 3 1 4 3 1

GFSSW_850_dewp_024.txt.gz
Dewpoint
-18 -18 -18 -15 -12 -9 -8 -7 -7 -7 -7 -7 -5 -5 -5 -7 -7 -6 -5 -4 -13 -14 -3 9 12 11 14 12 11 8 6 6 6 5 8 9 10 12 12 13 12 12 11 13 14
-17 -17 -18 -18 -18 -18 -15 -12 -9 -8 -7 -8 -7 -5 -5 -5 -8 -8 -5 -11 -12 -13 -1 8 9 11 11 10 8 7 6 5 4 4 6 9 9 12 12 12 12 13 12 14 14
-16 -16 -17 -17 -17 -17 -18 -18 -16 -11 -9 -8 -8 -7 -6 -6 -6 -8 -6 -10 -11 -12 3 3 3 8 6 3 7 7 7 4 5 5 6 9 9 10 9 11 11 13 14 14 14
-16 -16 -16 -16 -17 -17 -17 -17 -18 -18 -14 -11 -9 -8 -8 -7 -7 -10 -8 -8 -8 -11 -1 -2 -7 -0 -5 -0 5 7 4 2 4 7 6 8 8 9 9 8 10 12 14 13 13
-18 -17 -17 -17 -17 -17 -17 -17 -17 -18 -18 -15 -11 -10 -10 -2 -6 -8 -10 -10 -12 -9 -5 -7 -7 -9 -8 -3 2 5 2 3 3 7 7 8 9 7 9 12 10 12 13 13 13
-18 -19 -19 -18 -18 -17 -17 -17 -17 -17 -18 -18 -14 -13 -11 -6 -9 -10 -7 -7 -2 -4 -6 -8 -10 -11 -8 -4 2 2 2 4 4 6 8 9 9 8 9 13 11 13 13 13 13
-18 -18 -19 -20 -20 -19 -18 -17 -17 -16 -17 -18 -16 -13 -4 -7 -9 -7 -9 -4 0 -3 -6 -9 -9 -11 -8 -4 -2 1 4 6 6 7 9 8 10 11 10 12 12 13 13 12 13
-20 -20 -19 -20 -21 -20 -20 -18 -17 -16 -17 -18 -15 -7 -2 -6 -8 -9 -3 -2 -3 -1 -5 -9 -8 -8 -6 -3 1 1 1 6 8 8 9 8 10 9 11 12 12 12 12 12 13
-21 -22 -21 -21 -21 -21 -21 -19 -18 -16 -17 -13 -4 -0 -3 -4 -2 -0 -1 -3 -2 -3 -5 -8 -7 -10 -7 -1 2 2 4 4 9 8 9 9 9 9 11 12 12 12 12 12 13
-20 -21 -23 -23 -22 -22 -21 -20 -17 -14 -6 1 3 4 -0 -2 -1 -1 -0 -3 -2 -5 -6 -8 -8 -8 -8 -2 4 4 4 2 6 9 9 9 9 9 11 11 11 12 11 12 13
-21 -22 -23 -24 -24 -23 -20 -19 -1 3 4 -1 -1 -1 -3 -3 -1 -1 -2 -5 -5 -7 -10 -11 -8 -7 -7 -4 -1 1 2 3 3 7 9 9 9 9 11 11 10 11 12 12 12
-20 -20 -23 -25 -25 -19 -22 -9 -12 -11 -10 -11 -11 -9 -5 -4 -5 -2 -2 -6 -5 -8 -12 -10 -8 -8 -8 -6 -3 -1 2 2 4 8 8 8 9 8 8 11 11 10 11 12 12
-20 -21 -21 -24 -24 -21 -15 -4 -18 -14 -8 -11 -10 -10 -10 -8 -6 -6 -3 -5 -6 -7 -9 -9 -12 -11 -9 -6 -2 1 3 2 5 8 8 7 9 8 7 9 11 11 10 11 12
-18 -19 -20 -24 -15 -23 -7 -10 -17 -17 -6 -7 -6 -6 -5 -6 -6 -8 -4 -5 -6 -6 -8 -10 -14 -11 -9 -7 -3 2 0 2 4 8 10 8 8 6 7 9 10 11 10 10 11
-16 -18 -19 -20 -22 -15 -11 -21 -21 -4 -3 -6 -5 -4 -3 -4 -5 -6 -7 -5 -5 -6 -7 -8 -11 -10 -9 -9 -6 -1 -2 1 3 7 7 8 10 6 6 8 9 10 10 9 9
-16 -17 -18 -13 -19 -22 -20 -22 -6 -2 -2 -6 -4 -4 -3 -3 -4 -3 -8 -5 -6 -6 -6 -8 -10 -13 -12 -12 -10 -5 -2 1 2 4 8 6 8 7 6 9 7 7 9 8 8
-15 -16 -17 -18 -9 -22 -23 -12 -7 -5 -6 -7 -4 -5 -7 -5 -3 -3 -5 -4 -3 -0 -1 -6 -8 -12 -13 -11 -11 -6 -1 6 7 7 8 5 6 6 2 1 4 3 7 8 8
-13 -14 -16 -19 -20 -20 -16 -14 -6 -9 -8 -7 -6 -6 -6 -8 -5 -4 -4 -5 -6 -5 -4 -2 -4 -8 -12 -11 -9 -7 -2 3 8 6 6 4 6 5 3 2 1 0 3 6 9
-12 -9 -8 -13 -17 -12 -7 -14 -11 -11 -10 -10 -7 -4 -5 -5 -6 -4 -4 -5 -7 -6 -3 -3 -3 -10 -10 -12 -11 -6 -1 -2 1 1 3 2 3 2 0 2 1 0 1 5 7
-9 -3 -5 -4 -4 1 -9 -13 -15 -18 -14 -9 -8 -8 -4 -5 -5 -5 -4 -6 -7 -8 -6 -5 -2 -8 -9 -11 -12 -7 -5 0 1 6 6 2 3 3 2 1 -1 -2 -0 1 4
-2 -5 -4 -5 2 -1 -5 -14 -18 -19 -17 -11 -9 -8 -7 -7 -5 -6 -6 -6 -7 -8 -6 -5 -3 -5 -7 -7 -9 -8 -4 -2 -1 0 4 4 2 -1 -1 -2 -3 -4 -4 -3 -0
-2 -6 -0 -1 -3 -7 -8 -10 -13 -19 -20 -16 -13 -10 -9 -8 -6 -5 -5 -7 -7 -6 -5 -4 -3 -1 -6 -11 -11 -10 -5 -2 2 5 2 2 1 -4 -3 -3 -4 -5 -5 -5 -3
-2 -6 -5 -1 -5 -8 -8 -9 -9 -10 -16 -18 -17 -14 -13 -9 -4 -6 -7 -8 -9 -7 -3 -3 -1 2 -2 -10 -11 -9 -7 -6 -3 -2 5 4 2 -3 -4 -2 -3 -2 -2 -2 6
-2 -6 -5 1 -3 -2 -3 -2 -3 -8 -7 -12 -14 -16 -14 -10 -8 -5 -7 -9 -11 -10 -8 -4 -1 1 0 -3 -8 -7 -9 -8 -6 0 -0 1 1 -1 -3 -3 -4 -3 -4 -2 3
-2 -4 1 -4 -1 2 2 1 -0 -2 -5 -5 -4 -11 -12 -10 -9 -8 -8 -8 -6 -5 -5 -6 1 -0 -2 -4 -5 -6 -8 -10 -8 -7 -3 -3 -1 -1 -2 -3 -4 -6 -7 -5 5
0 -1 0 -1 -3 -4 -5 -4 -1 -2 -3 -1 -2 -6 -10 -8 -8 -7 -9 -7 -6 -7 -4 -1 4 3 2 -2 -3 -3 -5 -6 -8 -9 -8 -7 -4 -5 -5 -5 -5 -6 -6 -3 3
0 -0 -1 -4 -6 -5 -6 -6 -5 -1 -2 -3 -1 0 1 -2 -1 -1 -2 -3 -7 -4 -2 -1 1 5 5 1 1 2 -2 -4 -4 -7 -9 -6 -6 -7 -6 -4 -4 -3 -3 -2 -2

GFSSW_850_dewp_030.txt.gz
Dewpoint
-15 -15 -16 -16 -16 -16 -17 -17 -18 -18 -15 -10 -8 -8 -9 -11 -10 -7 -4 -4 -4 -8 -9 1 9 10 9 10 10 11 13 9 6 4 3 4 4 8 8 7 12 11 11 13 12
-17 -16 -15 -15 -16 -16 -16 -16 -17 -17 -18 -18 -14 -9 -9 -9 -12 -9 -11 -5 -4 -4 -9 4 7 7 7 7 9 14 15 11 7 3 3 3 4 6 7 7 9 11 11 11 12
-17 -18 -18 -18 -17 -16 -16 -16 -16 -17 -17 -17 -18 -16 -11 -9 -6 -4 -4 -8 -6 -8 -5 1 5 5 5 5 6 12 13 9 9 3 2 2 4 4 6 7 7 11 11 11 11
-19 -18 -18 -18 -19 -19 -17 -16 -15 -15 -16 -16 -17 -18 -17 -12 -3 -3 -6 -9 -8 -8 -2 0 2 3 4 4 6 12 12 9 4 3 2 2 2 5 5 6 7 10 12 12 11
-19 -20 -20 -20 -19 -19 -19 -19 -18 -16 -15 -15 -16 -17 -18 -0 -4 -6 -7 -9 -12 -12 -0 0 1 1 2 3 2 11 10 9 1 1 2 3 2 2 4 6 8 10 12 12 11
-19 -20 -20 -21 -21 -20 -19 -19 -20 -18 -16 -15 -16 -16 -18 -7 -8 -7 -6 -6 -4 -2 -0 1 -0 -1 -1 0 -1 -3 5 3 0 1 3 4 2 1 3 5 8 10 11 11 11
-18 -19 -20 -21 -22 -22 -21 -19 -20 -20 -18 -16 -16 -16 -4 -7 -6 -5 -5 -2 -2 -2 -3 -3 -1 -4 -2 -4 -5 -4 2 1 1 0 2 2 5 3 4 4 7 9 10 10 10
-12 -15 -18 -19 -21 -22 -22 -21 -19 -21 -19 -17 -15 -14 -2 -10 -7 -7 -9 -5 -4 -4 -5 -7 -8 -8 -7 -6 -6 -5 -1 5 1 -0 1 2 12 4 6 3 7 8 9 9 9
-7 -10 -12 -16 -19 -20 -21 -21 -20 -20 -19 -17 -11 -2 -0 -5 -4 -6 -9 -8 -8 -9 -5 -7 -9 -10 -9 -6 -4 -3 2 3 4 0 2 4 14 10 8 3 6 7 8 9 9
-5 -7 -10 -12 -16 -20 -21 -20 -17 -10 -5 -2 -3 6 3 -3 -4 -6 -9 -10 -10 -8 -7 -6 -8 -9 -9 -6 -1 -2 1 1 6 3 2 11 14 10 7 6 5 6 7 8 9
-4 -5 -6 -9 -14 -21 -21 -12 -2 3 5 4 1 -3 -7 -3 -6 -4 -8 -9 -7 -7 -7 -7 -7 -6 -8 -6 -4 -4 0 2 4 8 3 9 12 13 9 7 5 5 6 7 8
-3 -5 -6 -7 -12 -20 -9 -4 -7 -8 -10 -11 -9 -2 -0 -5 -4 -5 -6 -5 -6 -6 -8 -7 -6 -10 -9 -7 -4 -3 -0 3 4 8 7 4 12 12 10 6 6 6 5 6 7
-3 -4 -8 -6 -12 -3 -7 -9 -6 -8 -11 -12 -13 -14 -8 -2 -4 -6 -6 -6 -7 -7 -7 -7 -10 -12 -11 -7 -3 -3 -0 1 4 5 3 3 5 6 7 7 6 6 6 6 6
-3 -4 -7 -9 -7 -7 -8 -6 -9 -11 -8 -10 -12 -13 -14 -12 -9 -7 -7 -6 -9 -6 -7 -8 -11 -12 -12 -8 -5 -2 -4 -1 2 5 7 3 7 8 6 9 7 6 6 7 6
-6 -6 -7 -10 -9 -10 -5 -7 -8 -10 -2 -9 -11 -12 -13 -14 -12 -12 -9 -6 -6 -8 -8 -7 -10 -11 -12 -11 -7 -3 -4 -2 -1 3 6 8 9 7 7 8 8 6 6 6 7
-10 -9 -9 -7 -3 -6 -7 -7 -8 -6 -2 -7 -8 -8 -11 -13 -13 -11 -12 -9 -6 -8 -9 -9 -11 -13 -13 -14 -10 -7 -4 -3 -2 -0 7 8 7 9 8 8 7 5 4 7 6
-12 -13 -11 -10 -5 -6 -5 -8 -7 -4 -7 -6 -6 -7 -8 -10 -12 -8 -9 -9 -5 -1 -4 -7 -9 -11 -14 -13 -12 -9 -4 2 3 4 4 4 9 9 6 6 6 5 5 7 8
-11 -12 -9 -5 -2 -4 -5 -7 -3 -5 -7 -9 -8 -7 -6 -7 -9 -10 -6 -7 -9 -5 -5 -4 -4 -9 -12 -12 -10 -9 -6 1 7 5 4 1 5 8 6 5 6 6 6 5 6
-8 -4 -5 -5 -4 -3 -4 -4 -4 -5 -7 -8 -8 -7 -5 -6 -6 -7 -5 -5 -9 -7 -2 -3 -4 -9 -11 -12 -13 -10 -5 -7 -1 -0 2 1 1 1 3 4 7 6 3 3 5
-4 1 -2 -4 -5 -3 -3 -1 -5 -8 -9 -9 -6 -7 -5 -6 -5 -6 -4 -5 -8 -9 -7 -5 -3 -7 -9 -11 -13 -11 -10 -5 -4 5 7 3 4 5 8 7 4 5 3 2 2
-0 -1 -5 -4 -4 -2 0 -3 -4 -6 -6 -6 -6 -8 -9 -7 -6 -5 -7 -6 -6 -9 -10 -8 -4 -5 -7 -6 -8 -10 -10 -9 -6 -2 3 5 4 1 4 7 6 4 1 1 -2
-0 -2 -5 -3 -3 -4 -2 -4 -4 -4 -4 -5 -7 -8 -9 -10 -7 -6 -5 -8 -9 -8 -6 -8 -6 -1 -5 -7 -9 -10 -7 -8 -3 4 -0 1 2 -4 4 4 4 2 0 -0 -2
-0 -2 -5 -6 -3 -5 -6 -7 -7 -6 -5 -5 -5 -7 -9 -10 -6 -8 -6 -9 -9 -9 -6 -5 -4 0 -2 -6 -7 -7 -9 -12 -11 -9 3 2 1 -2 1 3 2 1 -1 -1 -1
1 -2 -7 -7 -6 -7 -1 0 -2 -7 -8 -7 -4 -5 -6 -7 -9 -6 -7 -8 -9 -9 2 -4 -5 -0 -1 -1 -5 -2 -6 -8 -10 -6 -4 -1 1 0 2 4 4 -1 -2 -2 -4
1 -2 -4 -0 -2 -1 2 3 2 0 -3 -3 -2 -2 1 1 -9 -10 -10 -9 -9 1 -6 -5 1 -2 -4 -6 -5 -5 -5 -7 -5 -4 -3 -5 1 -0 -0 3 2 -0 -2 -2 -2
2 -1 -0 -1 -3 -4 -4 -2 -1 -2 1 -1 0 1 2 4 4 5 3 -1 -5 -7 -6 -4 2 -1 -1 -6 -6 -4 -5 -6 -6 -6 -6 -6 -5 -5 -2 -2 3 -1 -0 -0 -1
1 1 2 -0 -3 -4 -7 -6 -0 -1 -0 -3 2 3 2 0 1 1 0 -1 -2 -3 -0 -0 -1 4 3 -1 -3 -1 -2 -3 -6 -6 -6 -4 -3 -3 -2 0 3 1 -2 2 0

GFSSW_850_dewp_033.txt.gz
Dewpoint
-17 -17 -18 -17 -16 -15 -16 -16 -16 -16 -17 -17 -17 -15 -11 -9 -10 -10 -14 -15 -14 -13 -5 -2 -3 0 13 16 13 11 16 16 11 5 5 7 9 10 12 13 13 13 15 15 15
-18 -18 -18 -18 -18 -18 -17 -16 -16 -16 -16 -16 -17 -17 -18 -14 -11 -12 -21 -19 -6 -2 -2 -2 6 8 9 9 12 13 16 13 7 7 4 8 9 10 12 13 13 13 14 15 14
-18 -19 -19 -19 -18 -18 -18 -18 -17 -16 -15 -16 -16 -17 -17 -18 -13 -13 -4 -16 -4 -4 -3 -3 0 5 7 6 12 13 14 9 7 7 6 4 6 7 10 12 12 13 13 15 15
-16 -18 -19 -20 -20 -20 -19 -19 -19 -19 -17 -16 -15 -16 -17 -18 -4 -3 -5 -7 -9 -7 -4 -4 -3 0 4 5 10 11 11 8 8 6 7 4 4 6 7 10 12 12 13 14 13
-12 -14 -17 -18 -19 -20 -21 -20 -19 -19 -19 -18 -16 -16 -17 -11 -14 -7 -8 -7 -11 -7 -6 -3 -3 -0 3 3 9 9 8 5 5 6 6 3 5 6 7 11 12 11 11 13 12
-7 -9 -12 -15 -17 -18 -20 -21 -21 -19 -19 -20 -18 -17 -16 -4 -13 -9 -9 -7 -7 -10 -12 -3 -2 -0 1 2 7 9 7 4 4 7 5 2 2 6 8 11 11 11 11 11 12
-6 -7 -7 -10 -13 -16 -17 -19 -21 -20 -19 -21 -19 -17 -13 -11 -11 -5 -6 -8 -6 -4 -5 -4 -0 1 -0 -0 -1 -1 8 6 4 4 4 3 3 5 8 10 12 12 12 12 11
-1 -4 -6 -7 -9 -12 -15 -17 -20 -20 -19 -21 -19 -13 -9 -10 -10 -8 -3 -4 -4 -5 -3 -3 -3 -2 -2 -5 -7 -4 -4 -2 3 1 3 4 10 4 6 10 11 12 12 12 11
-0 -0 -1 -4 -7 -9 -13 -16 -20 -19 -19 -19 -15 -6 3 -5 -4 -9 -7 -6 -7 -2 -3 -4 -6 -6 -7 -6 -5 -5 -2 -2 5 1 3 8 11 7 5 9 10 11 11 11 11
-2 -2 -1 -1 -5 -7 -12 -18 -9 -2 -1 -1 1 7 -2 -7 -3 -6 -6 -9 -6 -5 -9 -8 -5 -6 -8 -7 -3 -3 -2 -3 5 4 7 9 10 6 7 7 9 10 10 10 10
-3 -4 -3 -2 -3 -7 -15 -10 -7 -2 4 6 3 -3 -9 -6 -3 -4 -6 -7 -10 -10 -7 -7 -4 -3 -6 -8 -7 -5 -3 -2 2 6 10 11 10 7 5 6 7 9 9 9 9
-5 -5 -4 -4 -3 -9 -6 -5 -9 -6 -6 -9 -10 -5 1 -1 1 -4 -6 -9 -9 -8 -8 -5 -4 -5 -7 -7 -7 -6 -4 -2 7 6 6 10 10 9 7 7 7 7 8 9 9
-9 -7 -6 -5 -3 -6 -4 -6 -7 -9 -10 -11 -12 -12 -12 -7 -3 -3 -6 -10 -8 -7 -5 -4 -6 -7 -7 -7 -6 -6 -4 -2 8 7 7 7 11 11 5 6 7 7 8 8 8
-12 -12 -9 -6 -4 -6 -7 -4 -8 -9 -7 -8 -11 -12 -13 -13 -7 -2 -5 -6 -4 -3 -4 -5 -8 -7 -7 -8 -8 -5 -6 -3 6 8 11 7 14 12 9 9 8 8 6 7 8
-9 -12 -13 -11 -5 -4 -5 -6 -9 -8 -0 -7 -10 -13 -13 -13 -9 -5 -3 -6 -4 -5 -6 -5 -6 -7 -8 -9 -11 -6 -5 -3 -3 7 8 8 11 12 11 12 10 7 6 6 7
-7 -9 -11 -13 -8 -5 -5 -7 -7 -5 -1 -6 -10 -12 -13 -14 -13 -12 -5 -6 -5 -5 -8 -6 -7 -8 -9 -11 -13 -11 -6 -4 -3 1 11 7 11 9 8 11 9 7 6 6 6
-6 -8 -9 -9 -12 -7 -6 -5 -5 -3 -6 -5 -7 -9 -12 -12 -13 -13 -8 -7 -5 -1 -2 -6 -7 -9 -10 -10 -12 -12 -10 -2 1 2 5 8 9 9 5 6 8 7 6 6 7
-3 -8 -9 -9 -9 -4 -4 -3 -0 -3 -5 -7 -7 -7 -7 -9 -12 -12 -12 -8 -8 -6 -2 -1 -3 -8 -9 -11 -11 -12 -12 -4 3 4 3 2 10 8 5 5 6 6 6 6 7
-2 -7 -10 -7 -6 -3 -0 1 -2 -3 -5 -5 -5 -5 -5 -6 -7 -10 -11 -8 -9 -9 -4 -2 -2 -7 -9 -9 -13 -9 -9 -10 -4 -1 3 2 1 5 5 7 7 5 4 4 5
-1 -1 -10 -4 -3 -2 -1 0 -2 -4 -4 -4 -2 -4 -3 -5 -5 -5 -9 -10 -7 -10 -10 -5 0 -5 -7 -9 -10 -12 -10 -8 -7 -2 2 1 3 6 7 8 7 6 6 6 5
0 1 -15 -5 -4 -2 0 -1 -2 -4 -4 -3 -2 -2 -3 -3 -5 -6 -6 -7 -9 -7 -10 -9 -5 -3 -5 -6 -8 -8 -10 -10 -7 -5 -1 3 2 1 6 7 8 7 6 5 5
1 -0 -16 -5 -3 -3 -2 -2 -3 -3 -4 -4 -3 -2 -1 -2 -2 -4 -6 -8 -8 -7 -6 -8 -6 -3 -3 -5 -9 -9 -10 -9 -5 -0 0 -3 -2 -2 2 6 6 6 5 5 5
1 -1 -9 -4 -2 -2 -4 -4 -6 -6 -4 -2 -3 -4 -4 -2 -1 -3 -4 -8 -11 -10 -4 -7 -5 -3 -2 -5 -6 -8 -9 -10 -11 -7 -4 1 -1 -6 -3 5 6 6 5 5 3
2 -1 -4 -2 -3 -2 1 1 2 -1 -2 -2 -1 -2 -1 -3 -2 -0 -1 -5 -10 -11 -4 4 -6 -5 -3 -3 -3 -1 -6 -8 -10 -8 -8 -7 -7 -3 3 5 4 4 1 1 2
1 -1 -2 0 -0 -1 2 3 2 1 -2 -1 1 1 3 5 4 3 3 3 1 -0 -1 -5 -1 -4 -6 -4 -3 -5 -3 -7 -7 -8 -7 -9 -7 -5 -5 5 5 2 1 0 1
1 0 0 -0 -1 -2 -2 -4 -1 -1 -0 1 1 4 1 5 4 4 2 2 3 1 2 0 4 2 1 -4 -6 -5 -5 -6 -7 -8 -7 -7 -4 -3 -3 2 5 3 1 2 2
1 1 2 1 -1 -2 -3 -3 -2 -1 -1 -2 -1 3 3 -0 1 1 -2 -1 1 3 3 2 2 4 1 -0 -0 2 -5 -6 -3 -5 -6 -4 -6 -4 -4 -0 2 3 1 -2 -2